When you browse on this site, cookies collect data to enhance your experience and personalize the content and advertising you see.
Visit our Privacy Policy to learn more. By continuing to use the site, you agree to this use of cookies and data.
  • în România
  • Lista ţărilor
  • Pe 7 zile
  • Temperatura apei
  • Hartă satelitară
  • Meteo pe hartă
  • Widget-uri
  • user-avatar
    Intrare

    Meteo pe oră la Shusha

    Astăzi, 16 Iunie, Duminică

    Timp Temperatura Precipitaţii Vânt Presiune Umiditate
    00:00 +18°C° 0 mm 1 m/s 659 mmHg 63%
    01:00 +18°C° 0 mm 1 m/s 659 mmHg 63%
    02:00 +16°C° 0 mm 1 m/s 659 mmHg 63%
    03:00 +16°C° 0 mm 1 m/s 659 mmHg 63%
    04:00 +18°C° 0 mm 1 m/s 659 mmHg 63%
    05:00 +19°C° 0 mm 1 m/s 659 mmHg 64%
    06:00 +20°C° 0 mm 1 m/s 659 mmHg 64%
    07:00 +21°C° 0 mm 1 m/s 659 mmHg 59%
    08:00 +23°C° 0 mm 1 m/s 660 mmHg 54%
    09:00 +24°C° 0 mm 1 m/s 660 mmHg 48%
    10:00 +25°C° 0 mm 2 m/s 660 mmHg 47%
    11:00 +26°C° 0 mm 2 m/s 660 mmHg 46%
    12:00 +27°C° 0 mm 2 m/s 659 mmHg 44%
    13:00 +27°C° 0 mm 2 m/s 659 mmHg 44%
    14:00 +28°C° 0 mm 2 m/s 659 mmHg 43%
    15:00 +28°C° 0 mm 2 m/s 659 mmHg 43%
    16:00 +27°C° 0.1 mm 2 m/s 658 mmHg 47%
    17:00 +27°C° 0.1 mm 1 m/s 658 mmHg 52%
    18:00 +26°C° 0.1 mm 1 m/s 658 mmHg 57%
    19:00 +24°C° 0.1 mm 1 m/s 658 mmHg 59%
    20:00 +23°C° 0.1 mm 1 m/s 658 mmHg 60%
    21:00 +20°C° 0.1 mm 2 m/s 658 mmHg 62%
    22:00 +20°C° 0 mm 2 m/s 657 mmHg 60%
    23:00 +19°C° 0 mm 2 m/s 657 mmHg 59%

    Mâine, 17 Iunie, Luni

    Timp Temperatura Precipitaţii Vânt Presiune Umiditate
    00:00 +19°C° 0 mm 2 m/s 657 mmHg 58%
    01:00 +19°C° 0 mm 2 m/s 657 mmHg 58%
    02:00 +19°C° 0 mm 2 m/s 657 mmHg 58%
    03:00 +19°C° 0 mm 1 m/s 657 mmHg 58%
    04:00 +20°C° 0 mm 1 m/s 657 mmHg 59%
    05:00 +21°C° 0 mm 1 m/s 657 mmHg 60%
    06:00 +22°C° 0 mm 1 m/s 657 mmHg 62%
    07:00 +23°C° 0 mm 1 m/s 658 mmHg 58%
    08:00 +24°C° 0 mm 1 m/s 658 mmHg 55%
    09:00 +26°C° 0 mm 2 m/s 659 mmHg 52%
    10:00 +26°C° 0 mm 2 m/s 658 mmHg 51%
    11:00 +27°C° 0 mm 2 m/s 658 mmHg 50%
    12:00 +28°C° 0 mm 2 m/s 658 mmHg 50%
    13:00 +28°C° 0.2 mm 2 m/s 658 mmHg 51%
    14:00 +28°C° 0.2 mm 2 m/s 658 mmHg 52%
    15:00 +28°C° 0.2 mm 2 m/s 657 mmHg 52%
    16:00 +27°C° 0.5 mm 2 m/s 657 mmHg 55%
    17:00 +27°C° 0.5 mm 2 m/s 657 mmHg 57%
    18:00 +26°C° 0.5 mm 1 m/s 657 mmHg 59%
    19:00 +25°C° 0.4 mm 1 m/s 657 mmHg 62%
    20:00 +23°C° 0.4 mm 1 m/s 657 mmHg 64%
    21:00 +20°C° 0.4 mm 0 m/s 658 mmHg 67%
    22:00 +21°C° 0.2 mm 1 m/s 657 mmHg 68%
    23:00 +20°C° 0.2 mm 1 m/s 657 mmHg 69%

    Poimâine, 18 Iunie, Marţi

    Timp Temperatura Precipitaţii Vânt Presiune Umiditate
    00:00 +20°C° 0.2 mm 1 m/s 657 mmHg 70%
    01:00 +20°C° 0 mm 1 m/s 657 mmHg 70%
    02:00 +19°C° 0 mm 1 m/s 657 mmHg 70%
    03:00 +19°C° 0 mm 1 m/s 657 mmHg 70%
    04:00 +20°C° 0 mm 1 m/s 657 mmHg 69%
    05:00 +21°C° 0 mm 1 m/s 658 mmHg 68%
    06:00 +21°C° 0 mm 1 m/s 658 mmHg 67%
    07:00 +22°C° 0 mm 1 m/s 658 mmHg 62%
    08:00 +24°C° 0 mm 2 m/s 659 mmHg 56%
    09:00 +25°C° 0 mm 2 m/s 659 mmHg 51%
    10:00 +26°C° 0 mm 2 m/s 659 mmHg 49%
    11:00 +26°C° 0 mm 2 m/s 659 mmHg 47%
    12:00 +27°C° 0 mm 3 m/s 659 mmHg 45%
    13:00 +27°C° 0.2 mm 3 m/s 658 mmHg 44%
    14:00 +28°C° 0.2 mm 3 m/s 658 mmHg 43%
    15:00 +28°C° 0.2 mm 3 m/s 657 mmHg 43%
    16:00 +27°C° 0.2 mm 2 m/s 657 mmHg 47%
    17:00 +26°C° 0.2 mm 2 m/s 657 mmHg 51%
    18:00 +25°C° 0.2 mm 2 m/s 657 mmHg 54%
    19:00 +24°C° 0.1 mm 2 m/s 657 mmHg 57%
    20:00 +21°C° 0.1 mm 2 m/s 657 mmHg 59%
    21:00 +19°C° 0.1 mm 2 m/s 657 mmHg 61%
    22:00 +19°C° 0.1 mm 2 m/s 657 mmHg 60%
    23:00 +19°C° 0.1 mm 2 m/s 658 mmHg 59%

    19 Iunie, Miercuri

    Timp Temperatura Precipitaţii Vânt Presiune Umiditate
    00:00 +18°C° 0.1 mm 2 m/s 658 mmHg 59%
    01:00 +18°C° 0 mm 2 m/s 657 mmHg 58%
    02:00 +18°C° 0 mm 2 m/s 657 mmHg 57%
    03:00 +18°C° 0 mm 2 m/s 657 mmHg 57%
    04:00 +18°C° 0 mm 2 m/s 657 mmHg 58%
    05:00 +19°C° 0 mm 2 m/s 658 mmHg 59%
    06:00 +20°C° 0 mm 1 m/s 658 mmHg 60%
    07:00 +21°C° 0 mm 2 m/s 658 mmHg 53%
    08:00 +23°C° 0 mm 2 m/s 659 mmHg 47%
    09:00 +25°C° 0 mm 2 m/s 659 mmHg 40%
    10:00 +26°C° 0 mm 2 m/s 659 mmHg 39%
    11:00 +26°C° 0 mm 2 m/s 659 mmHg 38%
    12:00 +27°C° 0 mm 3 m/s 659 mmHg 37%
    13:00 +27°C° 0 mm 3 m/s 659 mmHg 37%
    14:00 +28°C° 0 mm 3 m/s 659 mmHg 37%
    15:00 +28°C° 0 mm 4 m/s 658 mmHg 38%
    16:00 +27°C° 0 mm 3 m/s 658 mmHg 41%
    17:00 +26°C° 0 mm 3 m/s 658 mmHg 44%
    18:00 +26°C° 0 mm 3 m/s 658 mmHg 48%
    19:00 +24°C° 0 mm 2 m/s 658 mmHg 49%
    20:00 +21°C° 0 mm 2 m/s 657 mmHg 50%
    21:00 +19°C° 0 mm 2 m/s 657 mmHg 52%
    22:00 +19°C° 0 mm 2 m/s 657 mmHg 52%
    23:00 +18°C° 0 mm 2 m/s 657 mmHg 52%

    20 Iunie, Joi

    Timp Temperatura Precipitaţii Vânt Presiune Umiditate
    00:00 +18°C° 0 mm 2 m/s 657 mmHg 52%
    01:00 +17°C° 0 mm 2 m/s 657 mmHg 52%
    02:00 +17°C° 0 mm 2 m/s 657 mmHg 51%
    03:00 +17°C° 0 mm 2 m/s 657 mmHg 51%
    04:00 +18°C° 0 mm 2 m/s 657 mmHg 53%
    05:00 +19°C° 0 mm 1 m/s 657 mmHg 55%
    06:00 +20°C° 0 mm 1 m/s 658 mmHg 56%
    07:00 +20°C° 0 mm 2 m/s 658 mmHg 51%
    08:00 +23°C° 0 mm 2 m/s 658 mmHg 46%
    09:00 +24°C° 0 mm 2 m/s 659 mmHg 41%
    10:00 +25°C° 0 mm 3 m/s 659 mmHg 40%
    11:00 +26°C° 0 mm 3 m/s 658 mmHg 39%
    12:00 +27°C° 0 mm 4 m/s 658 mmHg 38%
    13:00 +27°C° 0 mm 4 m/s 658 mmHg 38%
    14:00 +27°C° 0 mm 4 m/s 658 mmHg 38%
    15:00 +27°C° 0 mm 4 m/s 657 mmHg 38%
    16:00 +27°C° 0 mm 4 m/s 657 mmHg 41%
    17:00 +26°C° 0 mm 3 m/s 657 mmHg 44%
    18:00 +25°C° 0 mm 3 m/s 657 mmHg 47%
    19:00 +22°C° 0 mm 3 m/s 657 mmHg 50%
    20:00 +20°C° 0 mm 2 m/s 657 mmHg 52%
    21:00 +19°C° 0 mm 1 m/s 657 mmHg 55%
    22:00 +19°C° 0 mm 1 m/s 657 mmHg 55%
    23:00 +19°C° 0 mm 1 m/s 657 mmHg 55%

    21 Iunie, Vineri

    Timp Temperatura Precipitaţii Vânt Presiune Umiditate
    00:00 +19°C° 0 mm 1 m/s 657 mmHg 55%
    01:00 +17°C° 0 mm 2 m/s 657 mmHg 56%
    02:00 +17°C° 0 mm 2 m/s 657 mmHg 57%
    03:00 +16°C° 0 mm 2 m/s 657 mmHg 58%
    04:00 +17°C° 0.1 mm 2 m/s 657 mmHg 59%
    05:00 +19°C° 0.1 mm 1 m/s 657 mmHg 59%
    06:00 +19°C° 0.1 mm 1 m/s 658 mmHg 60%
    07:00 +19°C° 0.2 mm 2 m/s 658 mmHg 56%
    08:00 +20°C° 0.2 mm 2 m/s 659 mmHg 52%
    09:00 +21°C° 0.2 mm 3 m/s 659 mmHg 48%
    10:00 +21°C° 0.3 mm 3 m/s 659 mmHg 48%
    11:00 +22°C° 0.3 mm 3 m/s 659 mmHg 48%
    12:00 +23°C° 0.3 mm 2 m/s 659 mmHg 48%
    13:00 +23°C° 0.1 mm 2 m/s 659 mmHg 48%
    14:00 +24°C° 0.1 mm 2 m/s 659 mmHg 48%
    15:00 +24°C° 0.1 mm 1 m/s 659 mmHg 48%
    16:00 +24°C° 0 mm 1 m/s 659 mmHg 51%
    17:00 +23°C° 0 mm 1 m/s 659 mmHg 54%
    18:00 +23°C° 0 mm 1 m/s 659 mmHg 57%
    19:00 +22°C° 0 mm 1 m/s 659 mmHg 60%
    20:00 +20°C° 0 mm 1 m/s 659 mmHg 62%
    21:00 +19°C° 0 mm 1 m/s 659 mmHg 65%
    22:00 +19°C° 0 mm 1 m/s 659 mmHg 66%
    23:00 +18°C° 0 mm 1 m/s 659 mmHg 67%
    Arată mai mult